• In Deutschland
  • Länderverzeichnis
  • Für 7 Tage
  • Wassertemperatur
  • Satellitenkarten
  • Wetterkarte
  • Widgets
  • user-avatar
    Anmelden

    Stündliche Wetter Bozhou

    Heute, 14 August, Dienstag

    Zeit Temperatur Niederschläge Wind Luftdruck Luftfeuchtigkeit
    00:00 +27°C° 0 mm 1 m/S 710 mmHg 80%
    01:00 +26°C° 0 mm 1 m/S 710 mmHg 82%
    02:00 +26°C° 0 mm 1 m/S 710 mmHg 82%
    03:00 +26°C° 0 mm 1 m/S 710 mmHg 83%
    04:00 +25°C° 0 mm 1 m/S 709 mmHg 83%
    05:00 +26°C° 0 mm 1 m/S 710 mmHg 81%
    06:00 +27°C° 0 mm 1 m/S 710 mmHg 79%
    07:00 +29°C° 0 mm 1 m/S 710 mmHg 74%
    08:00 +30°C° 0,1 mm 2 m/S 710 mmHg 70%
    09:00 +31°C° 0,1 mm 2 m/S 710 mmHg 65%
    10:00 +34°C° 0,1 mm 3 m/S 710 mmHg 61%
    11:00 +35°C° 0,1 mm 3 m/S 710 mmHg 58%
    12:00 +36°C° 0,1 mm 3 m/S 710 mmHg 54%
    13:00 +36°C° 0 mm 3 m/S 710 mmHg 53%
    14:00 +36°C° 0,3 mm 3 m/S 710 mmHg 54%
    15:00 +36°C° 0,3 mm 3 m/S 710 mmHg 56%
    16:00 +35°C° 0,3 mm 3 m/S 709 mmHg 57%
    17:00 +33°C° 0,1 mm 3 m/S 709 mmHg 63%
    18:00 +31°C° 0,1 mm 2 m/S 710 mmHg 69%
    19:00 +29°C° 0,1 mm 2 m/S 710 mmHg 75%
    20:00 +28°C° 0 mm 2 m/S 710 mmHg 77%
    21:00 +27°C° 0 mm 2 m/S 711 mmHg 80%
    22:00 +27°C° 0 mm 2 m/S 711 mmHg 83%
    23:00 +26°C° 0 mm 1 m/S 711 mmHg 85%

    Morgen, 15 August, Mittwoch

    Zeit Temperatur Niederschläge Wind Luftdruck Luftfeuchtigkeit
    00:00 +26°C° 0 mm 1 m/S 711 mmHg 87%
    01:00 +26°C° 0 mm 1 m/S 711 mmHg 89%
    02:00 +25°C° 0 mm 1 m/S 711 mmHg 91%
    03:00 +25°C° 0 mm 1 m/S 711 mmHg 92%
    04:00 +25°C° 0 mm 1 m/S 711 mmHg 93%
    05:00 +26°C° 0 mm 1 m/S 711 mmHg 90%
    06:00 +27°C° 0 mm 2 m/S 712 mmHg 87%
    07:00 +28°C° 0 mm 2 m/S 712 mmHg 84%
    08:00 +29°C° 0,7 mm 3 m/S 712 mmHg 80%
    09:00 +30°C° 0,7 mm 3 m/S 712 mmHg 77%
    10:00 +32°C° 0,7 mm 4 m/S 712 mmHg 73%
    11:00 +33°C° 0,6 mm 4 m/S 711 mmHg 70%
    12:00 +34°C° 0,6 mm 4 m/S 711 mmHg 66%
    13:00 +35°C° 0,6 mm 4 m/S 711 mmHg 63%
    14:00 +34°C° 0,7 mm 4 m/S 710 mmHg 66%
    15:00 +34°C° 0,7 mm 3 m/S 710 mmHg 68%
    16:00 +34°C° 0,7 mm 3 m/S 710 mmHg 71%
    17:00 +31°C° 0,5 mm 3 m/S 710 mmHg 76%
    18:00 +30°C° 0,5 mm 3 m/S 710 mmHg 81%
    19:00 +28°C° 0,5 mm 2 m/S 710 mmHg 85%
    20:00 +28°C° 0,2 mm 2 m/S 711 mmHg 88%
    21:00 +27°C° 0,2 mm 2 m/S 711 mmHg 90%
    22:00 +27°C° 0,2 mm 2 m/S 712 mmHg 92%
    23:00 +26°C° 0,3 mm 2 m/S 711 mmHg 93%

    übermorgen, 16 August, Donnerstag

    Zeit Temperatur Niederschläge Wind Luftdruck Luftfeuchtigkeit
    00:00 +26°C° 0,3 mm 2 m/S 711 mmHg 94%
    01:00 +26°C° 0,3 mm 2 m/S 711 mmHg 95%
    02:00 +26°C° 0,9 mm 2 m/S 711 mmHg 95%
    03:00 +26°C° 0,9 mm 2 m/S 711 mmHg 95%
    04:00 +26°C° 0,9 mm 2 m/S 711 mmHg 95%
    05:00 +26°C° 0,3 mm 2 m/S 711 mmHg 94%
    06:00 +27°C° 0,3 mm 2 m/S 711 mmHg 92%
    07:00 +27°C° 0,3 mm 3 m/S 712 mmHg 91%
    08:00 +28°C° 0,2 mm 3 m/S 712 mmHg 85%
    09:00 +29°C° 0,2 mm 4 m/S 712 mmHg 80%
    10:00 +30°C° 0,2 mm 5 m/S 713 mmHg 74%
    11:00 +32°C° 0,3 mm 5 m/S 712 mmHg 70%
    12:00 +33°C° 0,3 mm 5 m/S 712 mmHg 66%
    13:00 +34°C° 0,3 mm 5 m/S 711 mmHg 62%
    14:00 +34°C° 0 mm 5 m/S 711 mmHg 62%
    15:00 +34°C° 0 mm 4 m/S 710 mmHg 61%
    16:00 +34°C° 0 mm 4 m/S 710 mmHg 60%
    17:00 +33°C° 0 mm 4 m/S 710 mmHg 65%
    18:00 +30°C° 0 mm 3 m/S 711 mmHg 71%
    19:00 +28°C° 0 mm 3 m/S 711 mmHg 77%
    20:00 +28°C° 0 mm 2 m/S 711 mmHg 80%
    21:00 +27°C° 0 mm 2 m/S 712 mmHg 84%
    22:00 +26°C° 0 mm 2 m/S 712 mmHg 87%
    23:00 +26°C° 0 mm 2 m/S 712 mmHg 89%

    17 August, Freitag

    Zeit Temperatur Niederschläge Wind Luftdruck Luftfeuchtigkeit
    00:00 +25°C° 0 mm 2 m/S 712 mmHg 90%
    01:00 +25°C° 0 mm 1 m/S 712 mmHg 92%
    02:00 +25°C° 0 mm 1 m/S 711 mmHg 92%
    03:00 +25°C° 0 mm 1 m/S 711 mmHg 93%
    04:00 +25°C° 0 mm 1 m/S 711 mmHg 93%
    05:00 +25°C° 0 mm 2 m/S 711 mmHg 90%
    06:00 +26°C° 0 mm 2 m/S 712 mmHg 87%
    07:00 +27°C° 0 mm 3 m/S 712 mmHg 83%
    08:00 +28°C° 0,1 mm 3 m/S 712 mmHg 80%
    09:00 +29°C° 0,1 mm 3 m/S 712 mmHg 76%
    10:00 +30°C° 0,1 mm 4 m/S 712 mmHg 73%
    11:00 +32°C° 0,2 mm 4 m/S 712 mmHg 70%
    12:00 +32°C° 0,2 mm 4 m/S 711 mmHg 67%
    13:00 +33°C° 0,2 mm 4 m/S 711 mmHg 65%
    14:00 +33°C° 0,1 mm 4 m/S 710 mmHg 65%
    15:00 +33°C° 0,1 mm 4 m/S 710 mmHg 65%
    16:00 +33°C° 0,1 mm 4 m/S 710 mmHg 65%
    17:00 +30°C° 0 mm 3 m/S 710 mmHg 71%
    18:00 +29°C° 0 mm 3 m/S 710 mmHg 76%
    19:00 +27°C° 0 mm 2 m/S 711 mmHg 82%
    20:00 +27°C° 0 mm 2 m/S 711 mmHg 83%
    21:00 +26°C° 0 mm 2 m/S 712 mmHg 85%
    22:00 +26°C° 0 mm 2 m/S 712 mmHg 87%
    23:00 +25°C° 0 mm 2 m/S 712 mmHg 89%

    18 August, Samstag

    Zeit Temperatur Niederschläge Wind Luftdruck Luftfeuchtigkeit
    00:00 +25°C° 0 mm 1 m/S 711 mmHg 91%
    01:00 +24°C° 0 mm 1 m/S 711 mmHg 93%
    02:00 +24°C° 0 mm 1 m/S 711 mmHg 93%
    03:00 +24°C° 0 mm 1 m/S 711 mmHg 94%
    04:00 +23°C° 0 mm 1 m/S 710 mmHg 94%
    05:00 +24°C° 0 mm 1 m/S 711 mmHg 90%
    06:00 +25°C° 0 mm 1 m/S 711 mmHg 85%
    07:00 +26°C° 0 mm 1 m/S 712 mmHg 80%
    08:00 +28°C° 0 mm 2 m/S 712 mmHg 75%
    09:00 +29°C° 0 mm 2 m/S 712 mmHg 70%
    10:00 +30°C° 0 mm 3 m/S 712 mmHg 65%
    11:00 +31°C° 0 mm 3 m/S 712 mmHg 63%
    12:00 +31°C° 0 mm 3 m/S 711 mmHg 62%
    13:00 +33°C° 0 mm 4 m/S 710 mmHg 61%
    14:00 +33°C° 0 mm 4 m/S 710 mmHg 61%
    15:00 +33°C° 0 mm 3 m/S 709 mmHg 61%
    16:00 +33°C° 0 mm 3 m/S 709 mmHg 61%
    17:00 +30°C° 0 mm 2 m/S 709 mmHg 68%
    18:00 +28°C° 0 mm 1 m/S 709 mmHg 75%
    19:00 +27°C° 0 mm 1 m/S 710 mmHg 81%
    20:00 +26°C° 0 mm 1 m/S 710 mmHg 83%
    21:00 +26°C° 0 mm 1 m/S 711 mmHg 84%
    22:00 +25°C° 0 mm 1 m/S 711 mmHg 86%
    23:00 +25°C° 0 mm 1 m/S 711 mmHg 86%

    19 August, Sonntag

    Zeit Temperatur Niederschläge Wind Luftdruck Luftfeuchtigkeit
    00:00 +24°C° 0 mm 1 m/S 711 mmHg 87%
    01:00 +24°C° 0 mm 1 m/S 710 mmHg 88%
    02:00 +23°C° 0 mm 1 m/S 710 mmHg 88%
    03:00 +23°C° 0 mm 1 m/S 710 mmHg 88%
    04:00 +23°C° 0 mm 1 m/S 710 mmHg 88%
    05:00 +24°C° 0 mm 1 m/S 711 mmHg 84%
    06:00 +23°C° 0 mm 0 m/S 711 mmHg 80%
    07:00 +24°C° 0 mm 0 m/S 712 mmHg 76%
    08:00 +28°C° 0 mm 1 m/S 712 mmHg 67%
    09:00 +30°C° 0 mm 2 m/S 712 mmHg 57%
    10:00 +32°C° 0 mm 2 m/S 712 mmHg 48%
    11:00 +32°C° 0 mm 2 m/S 711 mmHg 46%
    12:00 +34°C° 0 mm 2 m/S 711 mmHg 45%
    13:00 +35°C° 0 mm 2 m/S 710 mmHg 43%
    14:00 +35°C° 0 mm 2 m/S 710 mmHg 44%
    15:00 +35°C° 0 mm 2 m/S 710 mmHg 45%
    16:00 +35°C° 0 mm 2 m/S 709 mmHg 45%
    17:00 +32°C° 0 mm 1 m/S 710 mmHg 51%
    18:00 +30°C° 0 mm 1 m/S 710 mmHg 58%
    19:00 +27°C° 0 mm 1 m/S 710 mmHg 64%
    20:00 +27°C° 0 mm 1 m/S 711 mmHg 66%
    21:00 +26°C° 0 mm 1 m/S 711 mmHg 69%
    22:00 +26°C° 0 mm 1 m/S 711 mmHg 72%
    23:00 +25°C° 0 mm 1 m/S 711 mmHg 75%
    Mehr zeigen